This is the latest recevied weather packets stored in our database for station/object W6ORV. If no packets are shown the sender has not sent any weather packets the latest 10 day(s).
| Time | Temp. | Humidity | Pressure | Rain* | Wind** | Luminosity | Snow |
|---|---|---|---|---|---|---|---|
| 1777619186 | 12.22° C | 77% | 4299.1 hPa | 0 mm | - | 0 W/m² | - |
| 1777618886 | 12.22° C | 77% | 4299.2 hPa | 0 mm | - | 0 W/m² | - |
| 1777618586 | 12.22° C | 77% | 4299.2 hPa | 0 mm | - | 0 W/m² | - |
| 1777618282 | 12.22° C | 77% | 4298.7 hPa | 0 mm | - | 0 W/m² | - |
| 1777617979 | 12.22° C | 76% | 4299 hPa | 0 mm | - | 0 W/m² | - |
| 1777617675 | 12.78° C | 75% | 4298.8 hPa | 0 mm | - | 0 W/m² | - |
| 1777617370 | 12.78° C | 74% | 4298.9 hPa | 0 mm | - | 0 W/m² | - |
| 1777617068 | 12.78° C | 74% | 4298.8 hPa | 0 mm | - | 0 W/m² | - |
| 1777616763 | 12.78° C | 73% | 4298.7 hPa | 0 mm | - | 0 W/m² | - |
| 1777616458 | 13.33° C | 73% | 4299 hPa | 0 mm | - | 0 W/m² | - |
| 1777616155 | 13.33° C | 73% | 4298.7 hPa | 0 mm | - | 0 W/m² | - |
| 1777615852 | 12.78° C | 73% | 4298.7 hPa | 0 mm | - | 0 W/m² | - |
| 1777615549 | 12.78° C | 74% | 4298.6 hPa | 0 mm | - | 0 W/m² | - |
| 1777615244 | 13.33° C | 73% | 4298.8 hPa | 0 mm | - | 0 W/m² | - |
| 1777614938 | 13.33° C | 72% | 4298.5 hPa | 0 mm | - | 0 W/m² | - |
| 1777614635 | 13.33° C | 71% | 4298.7 hPa | 0 mm | - | 0 W/m² | - |
| 1777614331 | 13.89° C | 70% | 4298.7 hPa | 0 mm | - | 0 W/m² | - |
| 1777614026 | 13.89° C | 70% | 4298.7 hPa | 0 mm | - | 0 W/m² | - |
| 1777613722 | 13.89° C | 69% | 4298.4 hPa | 0 mm | - | 0 W/m² | - |
| 1777613420 | 13.89° C | 69% | 4298.5 hPa | 0 mm | - | 0 W/m² | - |
| 1777613116 | 13.89° C | 68% | 4298.4 hPa | 0 mm | - | 0 W/m² | - |
| 1777612812 | 13.89° C | 67% | 4298.6 hPa | 0 mm | - | 0 W/m² | - |
| 1777612508 | 13.89° C | 66% | 4298.3 hPa | 0 mm | - | 0 W/m² | - |
| 1777612204 | 14.44° C | 66% | 4298.2 hPa | 0 mm | - | 0 W/m² | - |
| 1777611899 | 15° C | 64% | 4298.2 hPa | 0 mm | - | 0 W/m² | - |
* Rain latest hour (hover to see other rain measurements)
** Current wind speed in m/s (hover to see current wind gust speed)